When you browse on this site, cookies collect data to enhance your experience and personalize the content and advertising you see.
Visit our Privacy Policy to learn more. By continuing to use the site, you agree to this use of cookies and data.
  • In Österreich
  • Länderverzeichnis
  • Für 7 Tage
  • Wassertemperatur
  • Wetterkarte
  • News
  • Widgets
  • user-avatar
    Anmelden

    Stündliche Wetter Bogolyubovka

    Heute, 25 Mai, Montag

    Zeit Temperatur Niederschläge Wind Luftdruck Luftfeuchtigkeit
    00:00 +14°C° 0 mm 2 m/S 753 mmHg 88%
    01:00 +14°C° 0 mm 2 m/S 753 mmHg 90%
    02:00 +14°C° 0 mm 2 m/S 753 mmHg 89%
    03:00 +13°C° 0 mm 3 m/S 753 mmHg 89%
    04:00 +13°C° 0 mm 3 m/S 753 mmHg 86%
    05:00 +13°C° 0 mm 4 m/S 753 mmHg 85%
    06:00 +13°C° 0 mm 5 m/S 754 mmHg 84%
    07:00 +13°C° 0 mm 6 m/S 754 mmHg 83%
    08:00 +13°C° 0.2 mm 6 m/S 755 mmHg 80%
    09:00 +12°C° 0.2 mm 7 m/S 756 mmHg 78%
    10:00 +14°C° 0 mm 7 m/S 757 mmHg 78%
    11:00 +15°C° 0 mm 6 m/S 757 mmHg 72%
    12:00 +15°C° 0 mm 5 m/S 757 mmHg 66%
    13:00 +17°C° 0 mm 4 m/S 758 mmHg 60%
    14:00 +17°C° 0 mm 4 m/S 758 mmHg 59%
    15:00 +17°C° 0 mm 5 m/S 758 mmHg 59%
    16:00 +17°C° 0 mm 5 m/S 758 mmHg 58%
    17:00 +16°C° 0 mm 5 m/S 758 mmHg 61%
    18:00 +17°C° 0 mm 4 m/S 758 mmHg 65%
    19:00 +16°C° 0 mm 3 m/S 758 mmHg 68%
    20:00 +14°C° 0 mm 3 m/S 758 mmHg 71%
    21:00 +12°C° 0 mm 4 m/S 758 mmHg 74%
    22:00 +11°C° 0 mm 4 m/S 759 mmHg 77%
    23:00 +11°C° 0 mm 4 m/S 759 mmHg 78%

    Morgen, 26 Mai, Dienstag

    Zeit Temperatur Niederschläge Wind Luftdruck Luftfeuchtigkeit
    00:00 +10°C° 0 mm 4 m/S 759 mmHg 79%
    01:00 +10°C° 0 mm 4 m/S 758 mmHg 80%
    02:00 +10°C° 0 mm 4 m/S 758 mmHg 80%
    03:00 +9°C° 0 mm 5 m/S 758 mmHg 80%
    04:00 +9°C° 0 mm 5 m/S 758 mmHg 80%
    05:00 +10°C° 0 mm 6 m/S 758 mmHg 76%
    06:00 +11°C° 0 mm 7 m/S 758 mmHg 72%
    07:00 +12°C° 0 mm 8 m/S 758 mmHg 68%
    08:00 +13°C° 0 mm 8 m/S 757 mmHg 64%
    09:00 +16°C° 0 mm 8 m/S 757 mmHg 60%
    10:00 +17°C° 0 mm 9 m/S 757 mmHg 56%
    11:00 +20°C° 0 mm 8 m/S 756 mmHg 56%
    12:00 +21°C° 0 mm 8 m/S 756 mmHg 56%
    13:00 +23°C° 0 mm 8 m/S 755 mmHg 55%
    14:00 +23°C° 0 mm 8 m/S 755 mmHg 56%
    15:00 +24°C° 0 mm 8 m/S 755 mmHg 56%
    16:00 +26°C° 0 mm 8 m/S 754 mmHg 57%
    17:00 +24°C° 0 mm 8 m/S 754 mmHg 61%
    18:00 +23°C° 0 mm 7 m/S 753 mmHg 64%
    19:00 +23°C° 0 mm 7 m/S 753 mmHg 68%
    20:00 +22°C° 0 mm 8 m/S 752 mmHg 66%
    21:00 +21°C° 0 mm 9 m/S 752 mmHg 64%
    22:00 +21°C° 0 mm 10 m/S 751 mmHg 62%
    23:00 +21°C° 0 mm 11 m/S 751 mmHg 61%

    übermorgen, 27 Mai, Mittwoch

    Zeit Temperatur Niederschläge Wind Luftdruck Luftfeuchtigkeit
    00:00 +19°C° 0 mm 11 m/S 751 mmHg 60%
    01:00 +19°C° 0 mm 11 m/S 751 mmHg 59%
    02:00 +19°C° 0 mm 11 m/S 750 mmHg 60%
    03:00 +18°C° 0 mm 11 m/S 750 mmHg 61%
    04:00 +18°C° 0 mm 11 m/S 750 mmHg 62%
    05:00 +18°C° 0 mm 10 m/S 750 mmHg 64%
    06:00 +19°C° 0 mm 10 m/S 750 mmHg 65%
    07:00 +19°C° 0 mm 10 m/S 750 mmHg 66%
    08:00 +22°C° 0 mm 10 m/S 751 mmHg 65%
    09:00 +23°C° 0 mm 9 m/S 751 mmHg 63%
    10:00 +26°C° 0 mm 8 m/S 751 mmHg 62%
    11:00 +27°C° 0 mm 7 m/S 751 mmHg 60%
    12:00 +28°C° 0 mm 7 m/S 751 mmHg 59%
    13:00 +29°C° 0 mm 6 m/S 751 mmHg 57%
    14:00 +28°C° 0 mm 5 m/S 752 mmHg 58%
    15:00 +28°C° 0 mm 5 m/S 752 mmHg 58%
    16:00 +28°C° 0 mm 5 m/S 752 mmHg 59%
    17:00 +27°C° 0 mm 4 m/S 752 mmHg 62%
    18:00 +26°C° 0 mm 3 m/S 752 mmHg 65%
    19:00 +26°C° 0 mm 2 m/S 752 mmHg 69%
    20:00 +24°C° 0 mm 2 m/S 752 mmHg 74%
    21:00 +21°C° 0 mm 2 m/S 752 mmHg 79%
    22:00 +20°C° 0 mm 2 m/S 752 mmHg 84%
    23:00 +19°C° 0 mm 2 m/S 752 mmHg 87%

    28 Mai, Donnerstag

    Zeit Temperatur Niederschläge Wind Luftdruck Luftfeuchtigkeit
    00:00 +18°C° 0 mm 2 m/S 752 mmHg 90%
    01:00 +17°C° 0 mm 2 m/S 752 mmHg 93%
    02:00 +17°C° 0 mm 2 m/S 752 mmHg 94%
    03:00 +17°C° 0 mm 2 m/S 752 mmHg 94%
    04:00 +16°C° 0 mm 2 m/S 752 mmHg 94%
    05:00 +17°C° 0 mm 2 m/S 753 mmHg 91%
    06:00 +18°C° 0 mm 2 m/S 753 mmHg 87%
    07:00 +18°C° 0 mm 3 m/S 753 mmHg 84%
    08:00 +19°C° 0 mm 3 m/S 753 mmHg 79%
    09:00 +20°C° 0 mm 3 m/S 753 mmHg 73%
    10:00 +21°C° 0 mm 3 m/S 753 mmHg 68%
    11:00 +24°C° 0 mm 3 m/S 753 mmHg 63%
    12:00 +25°C° 0 mm 3 m/S 752 mmHg 58%
    13:00 +26°C° 0 mm 3 m/S 752 mmHg 54%
    14:00 +26°C° 0 mm 4 m/S 752 mmHg 54%
    15:00 +26°C° 0 mm 4 m/S 752 mmHg 54%
    16:00 +26°C° 0 mm 4 m/S 752 mmHg 54%
    17:00 +25°C° 0 mm 4 m/S 752 mmHg 59%
    18:00 +23°C° 0 mm 4 m/S 752 mmHg 63%
    19:00 +22°C° 0 mm 4 m/S 752 mmHg 68%
    20:00 +21°C° 0 mm 4 m/S 752 mmHg 73%
    21:00 +19°C° 0 mm 4 m/S 752 mmHg 78%
    22:00 +16°C° 0 mm 5 m/S 752 mmHg 83%
    23:00 +16°C° 0 mm 5 m/S 752 mmHg 85%

    29 Mai, Freitag

    Zeit Temperatur Niederschläge Wind Luftdruck Luftfeuchtigkeit
    00:00 +15°C° 0 mm 5 m/S 752 mmHg 86%
    01:00 +14°C° 0 mm 5 m/S 752 mmHg 88%
    02:00 +14°C° 0 mm 5 m/S 752 mmHg 88%
    03:00 +13°C° 0 mm 5 m/S 751 mmHg 88%
    04:00 +12°C° 0 mm 5 m/S 751 mmHg 89%
    05:00 +13°C° 0 mm 6 m/S 751 mmHg 85%
    06:00 +14°C° 0 mm 6 m/S 751 mmHg 81%
    07:00 +15°C° 0 mm 7 m/S 750 mmHg 77%
    08:00 +17°C° 0 mm 7 m/S 750 mmHg 71%
    09:00 +20°C° 0 mm 7 m/S 750 mmHg 66%
    10:00 +21°C° 0 mm 7 m/S 750 mmHg 61%
    11:00 +23°C° 0 mm 7 m/S 750 mmHg 58%
    12:00 +24°C° 0 mm 7 m/S 750 mmHg 56%
    13:00 +27°C° 0 mm 7 m/S 749 mmHg 53%
    14:00 +27°C° 0 mm 7 m/S 749 mmHg 54%
    15:00 +27°C° 0 mm 7 m/S 749 mmHg 54%
    16:00 +27°C° 0 mm 7 m/S 749 mmHg 55%
    17:00 +26°C° 0 mm 7 m/S 749 mmHg 59%
    18:00 +24°C° 0 mm 6 m/S 748 mmHg 63%
    19:00 +23°C° 0 mm 6 m/S 748 mmHg 67%
    20:00 +22°C° 0 mm 6 m/S 748 mmHg 68%
    21:00 +21°C° 0 mm 6 m/S 748 mmHg 69%
    22:00 +20°C° 0 mm 6 m/S 748 mmHg 70%
    23:00 +20°C° 0 mm 6 m/S 748 mmHg 72%

    30 Mai, Samstag

    Zeit Temperatur Niederschläge Wind Luftdruck Luftfeuchtigkeit
    00:00 +20°C° 0 mm 6 m/S 748 mmHg 74%
    01:00 +20°C° 0 mm 6 m/S 748 mmHg 76%
    02:00 +19°C° 0 mm 5 m/S 747 mmHg 79%
    03:00 +19°C° 0 mm 5 m/S 747 mmHg 81%
    04:00 +19°C° 0 mm 5 m/S 747 mmHg 84%
    05:00 +20°C° 0 mm 5 m/S 747 mmHg 81%
    06:00 +21°C° 0 mm 6 m/S 747 mmHg 78%
    07:00 +22°C° 0 mm 7 m/S 747 mmHg 75%
    08:00 +23°C° 0 mm 7 m/S 747 mmHg 70%
    09:00 +26°C° 0 mm 7 m/S 747 mmHg 66%
    10:00 +28°C° 0 mm 7 m/S 747 mmHg 61%
    11:00 +29°C° 0 mm 7 m/S 747 mmHg 57%
    12:00 +30°C° 0 mm 7 m/S 747 mmHg 53%
    13:00 +33°C° 0 mm 7 m/S 747 mmHg 48%
    14:00 +34°C° 0 mm 7 m/S 747 mmHg 45%
    15:00 +35°C° 0 mm 6 m/S 746 mmHg 42%
    16:00 +36°C° 0 mm 6 m/S 746 mmHg 39%
    17:00 +35°C° 0 mm 5 m/S 746 mmHg 43%
    18:00 +33°C° 0 mm 5 m/S 746 mmHg 47%
    19:00 +32°C° 0 mm 4 m/S 746 mmHg 51%
    20:00 +30°C° 0 mm 5 m/S 746 mmHg 47%
    21:00 +30°C° 0 mm 6 m/S 746 mmHg 43%
    22:00 +29°C° 0 mm 7 m/S 746 mmHg 38%
    23:00 +28°C° 0 mm 6 m/S 746 mmHg 40%
    Mehr zeigen